Marion Regional, IL

8:17 PM CDT on June 23, 2017 (GMT -0500)
Williamson County Regional

Weather History for KMWA - October, 2011

Change the Weather History Date:

Tuesday, October 11, 2011

  Actual Average Record
Temperature  
Mean Temperature 68 °F -  
Max Temperature 80 °F 69 °F 88 °F (2010)
Min Temperature 57 °F 45 °F 30 °F (1990)
Cooling Degree Days 4    
Growing Degree Days 18 (Base 50)    
Moisture  
Dew Point 58 °F    
Average Humidity 83    
Maximum Humidity 100    
Minimum Humidity 42    
Precipitation  
Precipitation 0.00 in - - ()
Sea Level Pressure  
Sea Level Pressure 29.97 in    
Wind  
Wind Speed 1 mph (SSE)    
Max Wind Speed 8 mph    
Max Gust Speed -    
Visibility 12 miles    
Events      
Averages and records for this station are not official NWS values.
T = Trace of Precipitation, MM = Missing Value Source: NWS Daily Summary

Daily Weather History Graph

Daily Weather History Graph

Search for Another Location

Airport or City:

Trip Planner

Search our weather history database for the weather conditions in past years. The results will help you decide how hot, cold, wet, or windy it might be!

Date:

Astronomy

Oct. 11, 2011 Rise Set
Actual Time 7:00 AM CDT 6:24 PM CDT
Civil Twilight 6:34 AM CDT 6:50 PM CDT
Nautical Twilight 6:03 AM CDT 7:21 PM CDT
Astronomical Twilight 5:33 AM CDT 7:51 PM CDT
Moon 5:57 PM CDT (10/11) 6:37 AM CDT (10/11)
Length of Visible Light 12h 16m
Length of Day
11h 24m
Full, 100% of the Moon is Illuminated
Oct 11
Full
Oct 11
Full
Oct 19
Last Quarter
Oct 26
New
Nov 2
First Quarter

Hourly Weather History & Observations

Time (CDT) Temp. Heat Index Dew Point Humidity Pressure Visibility Wind Dir Wind Speed Gust Speed Precip Events Conditions
12:15 AM 60.8 °F - 59.0 °F 94% 30.04 in 10.0 mi Calm Calm - N/A   Clear
12:35 AM 57.2 °F - 55.4 °F 94% 30.03 in 10.0 mi Calm Calm - N/A   Clear
12:55 AM 59.0 °F - 59.0 °F 100% 30.02 in 10.0 mi Calm Calm - N/A   Clear
1:15 AM 60.8 °F - 57.2 °F 88% 30.02 in 10.0 mi Calm Calm - N/A   Clear
1:35 AM 59.0 °F - 55.4 °F 88% 30.02 in 10.0 mi Calm Calm - N/A   Clear
1:55 AM 59.0 °F - 55.4 °F 88% 30.02 in 10.0 mi Calm Calm - N/A   Clear
2:15 AM 59.0 °F - 57.2 °F 94% 30.02 in 10.0 mi Calm Calm - N/A   Clear
2:35 AM 57.2 °F - 55.4 °F 94% 30.01 in 10.0 mi Calm Calm - N/A   Clear
2:55 AM 59.0 °F - 57.2 °F 94% 30.01 in 7.0 mi Calm Calm - N/A   Scattered Clouds
3:15 AM 59.0 °F - 57.2 °F 94% 30.01 in 10.0 mi Calm Calm - N/A   Overcast
3:35 AM 59.0 °F - 57.2 °F 94% 30.01 in 7.0 mi Calm Calm - N/A   Mostly Cloudy
3:55 AM 59.0 °F - 57.2 °F 94% 30.01 in 10.0 mi Calm Calm - N/A   Scattered Clouds
4:15 AM 59.0 °F - 57.2 °F 94% 30.01 in 7.0 mi Calm Calm - N/A   Mostly Cloudy
4:35 AM 59.0 °F - 57.2 °F 94% 30.01 in 10.0 mi Calm Calm - N/A   Overcast
4:55 AM 59.0 °F - 57.2 °F 94% 30.01 in 10.0 mi Calm Calm - N/A   Overcast
5:15 AM 59.0 °F - 57.2 °F 94% 30.02 in 10.0 mi Calm Calm - N/A   Overcast
5:35 AM 59.0 °F - 57.2 °F 94% 30.02 in 10.0 mi Calm Calm - N/A   Overcast
5:55 AM 59.0 °F - 57.2 °F 94% 30.02 in 10.0 mi Calm Calm - N/A   Overcast
6:15 AM 59.0 °F - 59.0 °F 100% 30.02 in 10.0 mi Calm Calm - N/A   Overcast
6:35 AM 59.0 °F - 59.0 °F 100% 30.02 in 10.0 mi Calm Calm - N/A   Mostly Cloudy
6:55 AM 60.8 °F - 59.0 °F 94% 30.02 in 20.0 mi Calm Calm - N/A   Mostly Cloudy
7:55 AM 60.8 °F - 60.8 °F 100% 30.02 in 20.0 mi Calm Calm - N/A   Mostly Cloudy
8:55 AM 64.4 °F - 60.8 °F 88% 30.02 in 20.0 mi SE 4.6 mph - N/A   Mostly Cloudy
9:55 AM 66.2 °F - 60.8 °F 83% 30.02 in 20.0 mi ESE 4.6 mph - N/A   Overcast
10:55 AM 69.8 °F - 59.0 °F 68% 30.00 in 20.0 mi West 4.6 mph - N/A   Mostly Cloudy
11:55 AM 75.2 °F - 59.0 °F 57% 29.99 in 20.0 mi South 3.5 mph - N/A   Mostly Cloudy
12:57 PM 78.8 °F - 55.4 °F 44% 29.97 in 20.0 mi SW 4.6 mph - N/A   Mostly Cloudy
1:54 PM 78.8 °F - 57.2 °F 47% 29.94 in 20.0 mi SSE 5.8 mph - N/A   Mostly Cloudy
2:58 PM 80.6 °F 80.8 °F 57.2 °F 45% 29.92 in 20.0 mi NNE 5.8 mph - N/A   Mostly Cloudy
3:53 PM 80.6 °F 80.5 °F 55.4 °F 42% 29.91 in 20.0 mi North 8.1 mph - N/A   Mostly Cloudy
4:57 PM 80.6 °F 80.5 °F 55.4 °F 42% 29.89 in 20.0 mi SSE 6.9 mph - N/A   Mostly Cloudy
6:55 PM 68.0 °F - 59.0 °F 73% 29.90 in 10.0 mi Calm Calm - N/A   Clear
7:15 PM 68.0 °F - 59.0 °F 73% 29.90 in 10.0 mi Calm Calm - N/A   Clear
7:35 PM 64.4 °F - 59.0 °F 83% 29.90 in 10.0 mi Calm Calm - N/A   Clear
7:55 PM 64.4 °F - 57.2 °F 77% 29.90 in 10.0 mi Calm Calm - N/A   Clear
8:15 PM 64.4 °F - 57.2 °F 77% 29.90 in 10.0 mi Calm Calm - N/A   Scattered Clouds
8:35 PM 64.4 °F - 57.2 °F 77% 29.90 in 10.0 mi Calm Calm - N/A   Mostly Cloudy
8:55 PM 64.4 °F - 59.0 °F 83% 29.90 in 10.0 mi Calm Calm - N/A   Scattered Clouds
9:15 PM 64.4 °F - 59.0 °F 83% 29.91 in 10.0 mi Calm Calm - N/A   Clear
9:35 PM 64.4 °F - 59.0 °F 83% 29.90 in 10.0 mi Calm Calm - N/A   Clear
9:55 PM 62.6 °F - 57.2 °F 82% 29.90 in 10.0 mi Calm Calm - N/A   Clear
10:15 PM 60.8 °F - 57.2 °F 88% 29.90 in 10.0 mi Calm Calm - N/A   Clear
10:35 PM 60.8 °F - 57.2 °F 88% 29.91 in 10.0 mi Calm Calm - N/A   Clear
10:55 PM 64.4 °F - 59.0 °F 83% 29.91 in 10.0 mi Calm Calm - N/A   Clear
11:15 PM 62.6 °F - 57.2 °F 82% 29.91 in 10.0 mi Calm Calm - N/A   Clear
11:35 PM 62.6 °F - 57.2 °F 82% 29.90 in 10.0 mi Calm Calm - N/A   Clear
11:55 PM 62.6 °F - 57.2 °F 82% 29.89 in 10.0 mi Calm Calm - N/A   Clear